| time (UTC) | temp C | wind direction | speed KPH | gust KPH | rain 1hr cm | rain 24hr cm | rain mn cm | humidity % | barometer mb |
| 20260504202238 | 23 | 288 | 1.6 | 4.8 | 0.00 | 0.00 | 0.00 | 38 | 1005.9 |
| 20260504201735 | 24 | 219 | 6.4 | 16.1 | 0.00 | 0.00 | 0.00 | 37 | 1005.9 |
| 20260504201232 | 25 | 287 | 8.0 | 12.9 | 0.00 | 0.00 | 0.00 | 35 | 1006.0 |
| 20260504200730 | 24 | 23 | 1.6 | 11.3 | 0.00 | 0.00 | 0.00 | 36 | 1006.2 |
| 20260504200226 | 25 | 288 | 0.0 | 17.7 | 0.00 | 0.00 | 0.00 | 36 | 1006.2 |
| 20260504195722 | 25 | 203 | 8.0 | 12.9 | 0.00 | 0.00 | 0.00 | 34 | 1006.1 |
| 20260504195218 | 24 | 189 | 4.8 | 9.7 | 0.00 | 0.00 | 0.00 | 37 | 1006.2 |
| 20260504194716 | 25 | 266 | 8.0 | 12.9 | 0.00 | 0.00 | 0.00 | 34 | 1006.2 |
| 20260504194212 | 24 | 299 | 3.2 | 6.4 | 0.00 | 0.00 | 0.00 | 37 | 1006.6 |
| 20260504193708 | 23 | 289 | 8.0 | 11.3 | 0.00 | 0.00 | 0.00 | 37 | 1006.5 |
| 20260504193206 | 23 | 327 | 6.4 | 6.4 | 0.00 | 0.00 | 0.00 | 36 | 1006.6 |
| 20260504192704 | 24 | 318 | 4.8 | 9.7 | 0.00 | 0.00 | 0.00 | 36 | 1006.5 |
| 20260504192202 | 25 | 328 | 3.2 | 11.3 | 0.00 | 0.00 | 0.00 | 36 | 1006.8 |
| 20260504191700 | 24 | 297 | 1.6 | 3.2 | 0.00 | 0.00 | 0.00 | 34 | 1006.7 |
| 20260504191156 | 23 | 61 | 3.2 | 6.4 | 0.00 | 0.00 | 0.00 | 36 | 1007.0 |
| 20260504190652 | 24 | 55 | 1.6 | 4.8 | 0.00 | 0.00 | 0.00 | 35 | 1007.1 |
| 20260504190149 | 23 | 310 | 6.4 | 11.3 | 0.00 | 0.00 | 0.00 | 35 | 1007.0 |
| 20260504185645 | 24 | 221 | 6.4 | 14.5 | 0.00 | 0.00 | 0.00 | 35 | 1007.2 |
| 20260504185142 | 24 | 102 | 4.8 | 16.1 | 0.00 | 0.00 | 0.00 | 36 | 1006.9 |
| 20260504184638 | 25 | 336 | 4.8 | 14.5 | 0.00 | 0.00 | 0.00 | 36 | 1007.0 |
| 20260504184133 | 24 | 220 | 1.6 | 9.7 | 0.00 | 0.00 | 0.00 | 36 | 1007.2 |
| 20260504183630 | 23 | 31 | 1.6 | 12.9 | 0.00 | 0.00 | 0.00 | 39 | 1007.4 |
| 20260504183128 | 23 | 314 | 1.6 | 6.4 | 0.00 | 0.00 | 0.00 | 35 | 1007.4 |
| 20260504182625 | 23 | 332 | 8.0 | 14.5 | 0.00 | 0.00 | 0.00 | 35 | 1007.6 |
| 20260504182123 | 23 | 295 | 6.4 | 11.3 | 0.00 | 0.00 | 0.00 | 36 | 1007.5 |
| 20260504181620 | 23 | 309 | 6.4 | 11.3 | 0.00 | 0.00 | 0.00 | 35 | 1007.5 |
| 20260504181117 | 23 | 308 | 9.7 | 16.1 | 0.00 | 0.00 | 0.00 | 34 | 1007.6 |
| 20260504180617 | 23 | 14 | 6.4 | 14.5 | 0.00 | 0.00 | 0.00 | 34 | 1007.7 |
| 20260504180115 | 24 | 185 | 6.4 | 9.7 | 0.00 | 0.00 | 0.00 | 34 | 1007.7 |
| 20260504175612 | 24 | 349 | 11.3 | 20.9 | 0.00 | 0.00 | 0.00 | 35 | 1007.4 |
| 20260504175108 | 24 | 312 | 1.6 | 11.3 | 0.00 | 0.00 | 0.00 | 34 | 1007.6 |
| 20260504174607 | 24 | 339 | 4.8 | 16.1 | 0.00 | 0.00 | 0.00 | 36 | 1007.6 |
| 20260504174103 | 23 | 59 | 3.2 | 9.7 | 0.00 | 0.00 | 0.00 | 35 | 1007.8 |
| 20260504173559 | 23 | 305 | 3.2 | 4.8 | 0.00 | 0.00 | 0.00 | 35 | 1007.9 |
| 20260504173058 | 22 | 208 | 4.8 | 6.4 | 0.00 | 0.00 | 0.00 | 35 | 1008.1 |
| 20260504172553 | 22 | 289 | 3.2 | 9.7 | 0.00 | 0.00 | 0.00 | 36 | 1008.1 |
| 20260504172050 | 23 | 320 | 6.4 | 9.7 | 0.00 | 0.00 | 0.00 | 35 | 1008.2 |
| 20260504171547 | 22 | 242 | 3.2 | 9.7 | 0.00 | 0.00 | 0.00 | 33 | 1008.2 |
| 20260504171044 | 22 | 235 | 6.4 | 16.1 | 0.00 | 0.00 | 0.00 | 34 | 1008.1 |
| 20260504170539 | 22 | 284 | 1.6 | 12.9 | 0.00 | 0.00 | 0.00 | 34 | 1008.6 |
| 20260504150924 | 20 | 356 | 1.6 | 4.8 | 0.00 | 0.00 | 0.00 | 40 | 1010.1 |
| 20260504150420 | 20 | 232 | 3.2 | 11.3 | 0.00 | 0.00 | 0.00 | 41 | 1010.2 |
| 20260504140841 | 17 | 250 | 4.8 | 6.4 | 0.00 | 0.00 | 0.00 | 43 | 1010.5 |
| 20260504140336 | 17 | 252 | 4.8 | 9.7 | 0.00 | 0.00 | 0.00 | 43 | 1010.7 |
| 20260504130805 | 16 | 302 | 3.2 | 9.7 | 0.00 | 0.00 | 0.00 | 49 | 1011.0 |
| 20260504130301 | 15 | 337 | 1.6 | 6.4 | 0.00 | 0.00 | 0.00 | 49 | 1010.8 |
| 20260504120225 | 8 | 73 | 1.6 | 4.8 | 0.00 | 0.00 | 0.00 | 76 | 1011.6 |
| 20260504110647 | 4 | 95 | 0.0 | 0.0 | 0.00 | 0.00 | 0.00 | 87 | 1012.0 |
| 20260504110143 | 4 | 95 | 0.0 | 0.0 | 0.00 | 0.00 | 0.00 | 87 | 1011.8 |
| 20260504100609 | 5 | 93 | 0.0 | 0.0 | 0.00 | 0.00 | 0.00 | 87 | 1011.9 |
| 20260504100107 | 4 | 92 | 0.0 | 0.0 | 0.00 | 0.00 | 0.00 | 86 | 1011.9 |
| 20260504082002 | 3 | 81 | 0.0 | 0.0 | 0.00 | 0.00 | 0.00 | 86 | 1012.3 |
| 20260504081500 | 3 | 81 | 0.0 | 0.0 | 0.00 | 0.00 | 0.00 | 86 | 1012.3 |
| 20260504080956 | 3 | 81 | 1.6 | 1.6 | 0.00 | 0.00 | 0.00 | 87 | 1012.2 |
| 20260504080452 | 3 | 81 | 1.6 | 1.6 | 0.00 | 0.00 | 0.00 | 87 | 1012.2 |
| 20260504050253 | 2 | 298 | 0.0 | 0.0 | 0.00 | 0.00 | 0.00 | 86 | 1013.3 |
| 20260504045745 | 2 | 298 | 0.0 | 0.0 | 0.00 | 0.00 | 0.00 | 86 | 1013.1 |
| 20260504045244 | 2 | 298 | 0.0 | 0.0 | 0.00 | 0.00 | 0.00 | 85 | 1013.1 |
| 20260504044742 | 2 | 298 | 0.0 | 0.0 | 0.00 | 0.00 | 0.00 | 84 | 1013.2 |
| 20260504044239 | 2 | 299 | 0.0 | 1.6 | 0.00 | 0.00 | 0.00 | 83 | 1012.9 |
| 20260504043736 | 2 | 298 | 0.0 | 0.0 | 0.00 | 0.00 | 0.00 | 83 | 1013.2 |
| 20260504043233 | 2 | 299 | 0.0 | 0.0 | 0.00 | 0.00 | 0.00 | 82 | 1012.8 |
| 20260504042731 | 3 | 299 | 0.0 | 0.0 | 0.00 | 0.00 | 0.00 | 82 | 1013.0 |
| 20260504042227 | 3 | 298 | 0.0 | 0.0 | 0.00 | 0.00 | 0.00 | 81 | 1013.3 |
| 20260504041723 | 3 | 298 | 0.0 | 0.0 | 0.00 | 0.00 | 0.00 | 82 | 1013.4 |
| 20260504041220 | 3 | 298 | 0.0 | 0.0 | 0.00 | 0.00 | 0.00 | 80 | 1012.9 |
| 20260504040716 | 3 | 298 | 0.0 | 0.0 | 0.00 | 0.00 | 0.00 | 80 | 1013.1 |
| 20260504040214 | 3 | 302 | 0.0 | 0.0 | 0.00 | 0.00 | 0.00 | 80 | 1013.2 |
| 20260504035710 | 3 | 302 | 0.0 | 0.0 | 0.00 | 0.00 | 0.00 | 80 | 1013.2 |
| 20260504035207 | 3 | 302 | 0.0 | 0.0 | 0.00 | 0.00 | 0.00 | 80 | 1013.0 |
| 20260504034704 | 3 | 302 | 0.0 | 0.0 | 0.00 | 0.00 | 0.00 | 80 | 1013.2 |
| 20260504034201 | 4 | 307 | 0.0 | 0.0 | 0.00 | 0.00 | 0.00 | 80 | 1013.2 |
| 20260504033659 | 4 | 306 | 0.0 | 1.6 | 0.00 | 0.00 | 0.00 | 79 | 1013.1 |
| 20260504033156 | 4 | 305 | 0.0 | 0.0 | 0.00 | 0.00 | 0.00 | 82 | 1013.1 |
| 20260504032652 | 4 | 307 | 0.0 | 0.0 | 0.00 | 0.00 | 0.00 | 80 | 1013.2 |
| 20260504032150 | 5 | 307 | 0.0 | 0.0 | 0.00 | 0.00 | 0.00 | 79 | 1013.1 |
| 20260504031647 | 5 | 312 | 0.0 | 1.6 | 0.00 | 0.00 | 0.00 | 78 | 1012.9 |
| 20260504031143 | 5 | 294 | 0.0 | 0.0 | 0.00 | 0.00 | 0.00 | 74 | 1012.9 |
| 20260504030640 | 5 | 278 | 0.0 | 0.0 | 0.00 | 0.00 | 0.00 | 73 | 1013.1 |
| 20260504030137 | 5 | 277 | 0.0 | 1.6 | 0.00 | 0.00 | 0.00 | 74 | 1013.1 |
| 20260504025633 | 5 | 297 | 0.0 | 1.6 | 0.00 | 0.00 | 0.00 | 73 | 1013.0 |
| 20260504025130 | 5 | 256 | 0.0 | 0.0 | 0.00 | 0.00 | 0.00 | 72 | 1013.0 |
| 20260504024628 | 5 | 256 | 0.0 | 0.0 | 0.00 | 0.00 | 0.00 | 71 | 1013.1 |
| 20260504024124 | 5 | 256 | 0.0 | 0.0 | 0.00 | 0.00 | 0.00 | 72 | 1012.9 |
| 20260504023621 | 5 | 259 | 0.0 | 0.0 | 0.00 | 0.00 | 0.00 | 73 | 1013.1 |
| 20260504023117 | 6 | 277 | 0.0 | 0.0 | 0.00 | 0.00 | 0.00 | 73 | 1013.1 |
| 20260504022613 | 6 | 274 | 0.0 | 1.6 | 0.00 | 0.00 | 0.00 | 72 | 1012.9 |
| 20260504022109 | 6 | 250 | 0.0 | 1.6 | 0.00 | 0.00 | 0.00 | 73 | 1013.0 |
| 20260504021607 | 6 | 290 | 0.0 | 1.6 | 0.00 | 0.00 | 0.00 | 72 | 1013.1 |
| 20260504021104 | 6 | 296 | 0.0 | 1.6 | 0.00 | 0.00 | 0.00 | 73 | 1012.8 |
| 20260504020601 | 6 | 296 | 0.0 | 1.6 | 0.00 | 0.00 | 0.00 | 74 | 1013.0 |
| 20260504020057 | 6 | 305 | 0.0 | 1.6 | 0.00 | 0.00 | 0.00 | 75 | 1013.0 |
| 20260504015553 | 6 | 295 | 0.0 | 0.0 | 0.00 | 0.00 | 0.00 | 74 | 1013.0 |
| 20260504015049 | 6 | 294 | 0.0 | 0.0 | 0.00 | 0.00 | 0.00 | 73 | 1012.8 |
| 20260504014546 | 6 | 295 | 0.0 | 1.6 | 0.00 | 0.00 | 0.00 | 74 | 1012.7 |
| 20260504014043 | 6 | 307 | 0.0 | 1.6 | 0.00 | 0.00 | 0.00 | 69 | 1012.8 |
| 20260504013541 | 6 | 307 | 0.0 | 1.6 | 0.00 | 0.00 | 0.00 | 73 | 1012.8 |
| 20260504013037 | 6 | 291 | 0.0 | 0.0 | 0.00 | 0.00 | 0.00 | 74 | 1012.5 |
| 20260504012535 | 7 | 308 | 1.6 | 1.6 | 0.00 | 0.00 | 0.00 | 72 | 1012.3 |
| 20260504012033 | 7 | 299 | 0.0 | 1.6 | 0.00 | 0.00 | 0.00 | 72 | 1012.4 |
| 20260504011529 | 7 | 303 | 0.0 | 1.6 | 0.00 | 0.00 | 0.00 | 68 | 1012.3 |
| 20260504011025 | 7 | 299 | 0.0 | 0.0 | 0.00 | 0.00 | 0.00 | 70 | 1012.3 |
| 20260504010521 | 7 | 295 | 0.0 | 1.6 | 0.00 | 0.00 | 0.00 | 70 | 1012.4 |
| 20260504010017 | 7 | 315 | 0.0 | 1.6 | 0.00 | 0.00 | 0.00 | 71 | 1012.3 |
| 20260504005514 | 8 | 266 | 0.0 | 1.6 | 0.00 | 0.00 | 0.00 | 65 | 1012.1 |
| 20260504005012 | 8 | 243 | 0.0 | 1.6 | 0.00 | 0.00 | 0.00 | 64 | 1012.3 |
| 20260504004509 | 8 | 257 | 0.0 | 1.6 | 0.00 | 0.00 | 0.00 | 63 | 1012.4 |
| 20260504004006 | 8 | 281 | 0.0 | 1.6 | 0.00 | 0.00 | 0.00 | 62 | 1012.3 |
| 20260504003502 | 8 | 276 | 1.6 | 1.6 | 0.00 | 0.00 | 0.00 | 59 | 1012.2 |
| 20260504002959 | 9 | 270 | 1.6 | 1.6 | 0.00 | 0.00 | 0.00 | 57 | 1012.2 |
| 20260504002456 | 9 | 303 | 1.6 | 1.6 | 0.00 | 0.00 | 0.00 | 58 | 1012.0 |
| 20260504001953 | 10 | 254 | 0.0 | 1.6 | 0.00 | 0.00 | 0.00 | 53 | 1012.1 |
| 20260504001451 | 10 | 250 | 0.0 | 3.2 | 0.00 | 0.00 | 0.00 | 55 | 1012.1 |
| 20260504000947 | 10 | 291 | 0.0 | 3.2 | 0.00 | 0.00 | 0.00 | 53 | 1012.2 |
| 20260504000444 | 10 | 272 | 0.0 | 1.6 | 0.00 | 0.00 | 0.00 | 50 | 1012.0 |
| 20260503235942 | 11 | 293 | 0.0 | 1.6 | 0.00 | 0.00 | 0.00 | 52 | 1012.3 |
| 20260503235439 | 12 | 296 | 1.6 | 1.6 | 0.00 | 0.00 | 0.00 | 51 | 1011.9 |
| 20260503234936 | 13 | 323 | 1.6 | 3.2 | 0.00 | 0.00 | 0.00 | 42 | 1012.1 |
| 20260503234434 | 13 | 279 | 3.2 | 4.8 | 0.00 | 0.00 | 0.00 | 41 | 1012.0 |
| 20260503233932 | 14 | 126 | 3.2 | 4.8 | 0.00 | 0.00 | 0.00 | 33 | 1011.7 |
| 20260503233428 | 14 | 338 | 3.2 | 4.8 | 0.00 | 0.00 | 0.00 | 35 | 1012.0 |
| 20260503232925 | 15 | 282 | 0.0 | 6.4 | 0.00 | 0.00 | 0.00 | 33 | 1012.0 |
| 20260503232422 | 15 | 57 | 3.2 | 4.8 | 0.00 | 0.00 | 0.00 | 31 | 1012.0 |
| 20260503231920 | 15 | 305 | 0.0 | 9.7 | 0.00 | 0.00 | 0.00 | 32 | 1012.0 |
| 20260503231417 | 15 | 335 | 3.2 | 11.3 | 0.00 | 0.00 | 0.00 | 30 | 1012.0 |
| 20260503230913 | 15 | 306 | 1.6 | 3.2 | 0.00 | 0.00 | 0.00 | 33 | 1012.0 |
| 20260503230409 | 15 | 312 | 6.4 | 9.7 | 0.00 | 0.00 | 0.00 | 32 | 1012.0 |
| 20260503225907 | 16 | 280 | 6.4 | 9.7 | 0.00 | 0.00 | 0.00 | 30 | 1011.9 |
| 20260503225403 | 16 | 282 | 8.0 | 11.3 | 0.00 | 0.00 | 0.00 | 29 | 1012.0 |
| 20260503224859 | 16 | 357 | 0.0 | 6.4 | 0.00 | 0.00 | 0.00 | 32 | 1011.9 |
| 20260503224357 | 16 | 318 | 3.2 | 6.4 | 0.00 | 0.00 | 0.00 | 28 | 1011.9 |
| 20260503223854 | 17 | 348 | 1.6 | 4.8 | 0.00 | 0.00 | 0.00 | 28 | 1011.8 |
| 20260503223352 | 16 | 298 | 3.2 | 6.4 | 0.00 | 0.00 | 0.00 | 29 | 1011.6 |
| 20260503222847 | 16 | 233 | 1.6 | 9.7 | 0.00 | 0.00 | 0.00 | 30 | 1011.9 |
| 20260503222346 | 16 | 51 | 1.6 | 9.7 | 0.00 | 0.00 | 0.00 | 31 | 1011.9 |
| 20260503221843 | 17 | 72 | 1.6 | 9.7 | 0.00 | 0.00 | 0.00 | 30 | 1011.6 |
| 20260503221342 | 16 | 313 | 6.4 | 9.7 | 0.00 | 0.00 | 0.00 | 31 | 1011.7 |
| 20260503220837 | 17 | 24 | 1.6 | 4.8 | 0.00 | 0.00 | 0.00 | 31 | 1011.7 |
| 20260503220335 | 17 | 259 | 4.8 | 4.8 | 0.00 | 0.00 | 0.00 | 27 | 1012.0 |
| 20260503215832 | 17 | 74 | 1.6 | 3.2 | 0.00 | 0.00 | 0.00 | 31 | 1011.9 |
| 20260503215329 | 16 | 332 | 3.2 | 12.9 | 0.00 | 0.00 | 0.00 | 30 | 1012.1 |
| 20260503214827 | 17 | 312 | 3.2 | 9.7 | 0.00 | 0.00 | 0.00 | 30 | 1012.1 |
| 20260503214324 | 17 | 298 | 1.6 | 9.7 | 0.00 | 0.00 | 0.00 | 30 | 1012.1 |
| 20260503213821 | 16 | 283 | 1.6 | 12.9 | 0.00 | 0.00 | 0.00 | 28 | 1011.9 |
| 20260503213319 | 17 | 16 | 1.6 | 9.7 | 0.00 | 0.00 | 0.00 | 30 | 1012.0 |
| 20260503212815 | 17 | 330 | 3.2 | 12.9 | 0.00 | 0.00 | 0.00 | 28 | 1012.0 |
| 20260503212313 | 16 | 64 | 1.6 | 9.7 | 0.00 | 0.00 | 0.00 | 31 | 1012.0 |
| 20260503211810 | 17 | 224 | 3.2 | 14.5 | 0.00 | 0.00 | 0.00 | 30 | 1012.1 |
| 20260503211307 | 16 | 249 | 1.6 | 9.7 | 0.00 | 0.00 | 0.00 | 32 | 1012.1 |
| 20260503210807 | 16 | 7 | 3.2 | 9.7 | 0.00 | 0.00 | 0.00 | 30 | 1012.1 |
| 20260503210305 | 17 | 357 | 9.7 | 16.1 | 0.00 | 0.00 | 0.00 | 29 | 1012.2 |
| 20260503205759 | 17 | 50 | 1.6 | 14.5 | 0.00 | 0.00 | 0.00 | 30 | 1012.2 |
| 20260503205256 | 17 | 318 | 6.4 | 9.7 | 0.00 | 0.00 | 0.00 | 30 | 1012.1 |
| 20260503204753 | 16 | 256 | 6.4 | 11.3 | 0.00 | 0.00 | 0.00 | 28 | 1012.1 |
| 20260503204251 | 16 | 329 | 4.8 | 4.8 | 0.00 | 0.00 | 0.00 | 29 | 1012.1 |
| 20260503203748 | 16 | 321 | 1.6 | 6.4 | 0.00 | 0.00 | 0.00 | 31 | 1012.2 |
| 20260503203245 | 16 | 339 | 3.2 | 12.9 | 0.00 | 0.00 | 0.00 | 29 | 1012.4 |
| 20260503202742 | 16 | 317 | 4.8 | 11.3 | 0.00 | 0.00 | 0.00 | 32 | 1012.6 |